This is the latest recevied weather packets stored in our database for station/object EUGENE. If no packets are shown the sender has not sent any weather packets the latest 10 day(s).
| Time | Temp. | Humidity | Pressure | Rain* | Wind** | Luminosity | Snow |
|---|---|---|---|---|---|---|---|
| 1777927330 | 17.22° C | 74% | 1013.9 hPa | 0 mm | - | - | - |
| 1777926430 | 17.22° C | 75% | 1013.9 hPa | 0 mm | - | - | - |
| 1777925530 | 16.67° C | 74% | 1014 hPa | 0 mm | - | - | - |
| 1777924630 | 16.67° C | 75% | 1014 hPa | 0 mm | - | - | - |
| 1777923730 | 16.67° C | 77% | 1014 hPa | 0 mm | - | - | - |
| 1777922830 | 16.11° C | 76% | 1014.1 hPa | 0 mm | - | - | - |
| 1777921930 | 15.56° C | 76% | 1014.2 hPa | 0 mm | - | - | - |
| 1777921030 | 15.56° C | 80% | 1014.3 hPa | 0 mm | - | - | - |
| 1777920129 | 15° C | 79% | 1014.5 hPa | 0 mm | - | - | - |
| 1777919230 | 15° C | 79% | 1014.5 hPa | 0 mm | - | - | - |
| 1777918331 | 15° C | 80% | 1014.5 hPa | 0 mm | - | - | - |
| 1777917430 | 14.44° C | 81% | 1014.5 hPa | 0 mm | - | - | - |
| 1777916529 | 13.89° C | 82% | 1014.5 hPa | 0 mm | - | - | - |
| 1777915630 | 14.44° C | 82% | 1014.6 hPa | 0 mm | - | - | - |
| 1777914729 | 13.89° C | 83% | 1014.5 hPa | 0 mm | - | - | - |
| 1777913829 | 13.89° C | 82% | 1014.4 hPa | 0 mm | - | - | - |
| 1777912930 | 13.89° C | 83% | 1014.4 hPa | 0 mm | - | - | - |
| 1777912029 | 13.33° C | 84% | 1014.3 hPa | 0 mm | - | - | - |
| 1777911129 | 13.33° C | 84% | 1014.3 hPa | 0 mm | - | - | - |
| 1777910229 | 13.33° C | 84% | 1014.2 hPa | 0 mm | - | - | - |
| 1777909329 | 13.33° C | 84% | 1014.2 hPa | 0 mm | - | - | - |
| 1777908429 | 13.33° C | 84% | 1014.1 hPa | 0 mm | - | - | - |
| 1777907529 | 13.33° C | 85% | 1014 hPa | 0 mm | - | - | - |
| 1777906630 | 12.78° C | 85% | 1013.9 hPa | 0 mm | - | - | - |
| 1777905729 | 12.78° C | 85% | 1013.8 hPa | 0 mm | - | - | - |
* Rain latest hour (hover to see other rain measurements)
** Current wind speed in m/s (hover to see current wind gust speed)